KI5NYZ Weather Reports


time (UTC)temp
C
wind
direction
speed
KPH
gust
KPH
rain 1hr
cm
rain 24hr
cm
rain mn
cm
humidity
%
barometer
mb
20260510153541 25 169 3.2 8.0 0.00 0.03 0.00 52 1013.6
20260510152523 25 128 3.2 9.7 0.00 0.03 0.00 51 1013.5
20260510151520 24 131 1.6 8.0 0.00 0.03 0.00 54 1013.5
20260510150522 24 104 1.6 6.4 0.00 0.03 0.00 53 1013.5
20260510145521 24 124 1.6 8.0 0.00 0.03 0.00 54 1013.4
20260510144522 23 117 1.6 4.8 0.00 0.03 0.00 55 1013.3
20260510143521 23 168 0.0 6.4 0.00 0.03 0.00 57 1013.4
20260510142525 22 104 3.2 6.4 0.00 0.03 0.00 58 1013.4
20260510141541 22 106 1.6 6.4 0.00 0.03 0.00 58 1013.0
20260510140522 22 88 4.8 9.7 0.00 0.03 0.00 59 1012.8
20260510135521 21 86 6.4 9.7 0.00 0.03 0.00 59 1012.8
20260510134519 20 88 6.4 11.3 0.00 0.03 0.00 59 1012.8
20260510133541 20 68 4.8 9.7 0.00 0.03 0.00 60 1013.1
20260510132520 18 55 6.4 11.3 0.00 0.03 0.00 62 1012.9
20260510131519 17 72 3.2 6.4 0.00 0.03 0.00 66 1012.5
20260510130519 17 66 1.6 4.8 0.00 0.03 0.00 69 1012.3
20260510125519 16 0 0.0 0.0 0.00 0.03 0.00 69 1012.0
20260510124521 17 60 1.6 4.8 0.00 0.03 0.00 71 1012.0
20260510123522 17 0 0.0 0.0 0.00 0.03 0.00 71 1011.6
20260510122520 16 141 0.0 3.2 0.00 0.03 0.00 72 1011.3
20260510121519 16 91 0.0 3.2 0.00 0.03 0.00 72 1011.2
20260510120520 16 126 0.0 3.2 0.00 0.03 0.00 71 1010.8
20260510115520 15 77 1.6 6.4 0.00 0.03 0.00 73 1010.7
20260510114520 15 68 4.8 6.4 0.00 0.03 0.00 75 1010.5
20260510113522 16 0 0.0 0.0 0.00 0.03 0.00 69 1010.1
20260510112525 17 208 1.6 4.8 0.00 0.03 0.00 69 1010.0
20260510111602 17 230 6.4 14.5 0.00 0.03 0.00 69 1010.0
20260510110540 17 230 6.4 9.7 0.00 0.03 0.00 68 1009.9
20260510105519 17 238 11.3 16.1 0.00 0.03 0.00 67 1010.0
20260510104519 17 238 12.9 19.3 0.00 0.03 0.00 67 1010.1
20260510103539 16 233 8.0 12.9 0.00 0.03 0.00 66 1009.9
20260510102519 17 208 3.2 6.4 0.00 0.03 0.00 65 1009.6
20260510101519 17 211 1.6 8.0 0.00 0.03 0.00 64 1009.6
20260510100520 17 208 1.6 6.4 0.00 0.03 0.00 63 1009.5
20260510095559 17 203 3.2 8.0 0.00 0.03 0.00 63 1009.6
20260510094522 17 234 0.0 3.2 0.00 0.03 0.00 61 1009.6
20260510093522 18 230 3.2 9.7 0.00 0.03 0.00 60 1009.5
20260510092520 18 232 3.2 11.3 0.00 0.03 0.00 58 1009.5
20260510091519 19 229 6.4 14.5 0.00 0.03 0.00 56 1009.6
20260510090520 20 234 6.4 9.7 0.00 0.03 0.00 54 1009.6
20260510085520 19 236 4.8 8.0 0.00 0.03 0.00 53 1009.6
20260510084520 19 235 4.8 9.7 0.00 0.03 0.00 54 1009.6
20260510083521 19 231 1.6 4.8 0.00 0.03 0.00 53 1009.5
20260510082538 19 233 1.6 8.0 0.00 0.03 0.00 52 1009.4
20260510081519 20 228 1.6 4.8 0.00 0.03 0.00 51 1009.2
20260510080519 20 237 3.2 6.4 0.00 0.03 0.00 49 1009.1
20260510075519 21 233 3.2 6.4 0.00 0.03 0.00 48 1009.2
20260510074540 21 233 3.2 8.0 0.00 0.03 0.00 47 1009.3
20260510073518 21 230 3.2 12.9 0.00 0.03 0.00 45 1009.3
20260510072520 21 224 6.4 9.7 0.00 0.03 0.00 44 1009.4
20260510071521 22 223 6.4 9.7 0.00 0.03 0.00 43 1009.3
20260510070519 22 232 9.7 20.9 0.00 0.03 0.00 42 1009.2
20260510065520 22 227 4.8 16.1 0.00 0.03 0.00 41 1009.2
20260510064620 22 225 6.4 20.9 0.00 0.03 0.00 40 1009.3
20260510063519 22 215 4.8 16.1 0.00 0.03 0.00 39 1009.3
20260510062519 22 213 4.8 20.9 0.00 0.03 0.00 39 1009.3
20260510061519 22 207 4.8 16.1 0.00 0.03 0.00 38 1009.3
20260510060520 22 205 3.2 11.3 0.00 0.03 0.00 38 1009.3
20260510055520 22 215 3.2 16.1 0.00 0.03 0.00 37 1009.3
20260510054520 22 196 3.2 14.5 0.00 0.03 0.00 36 1009.3
20260510053520 22 224 3.2 12.9 0.00 0.03 0.00 36 1009.3
20260510052520 22 203 3.2 8.0 0.00 0.03 0.00 35 1009.2
20260510051543 22 208 3.2 16.1 0.00 0.03 0.00 34 1009.2
20260510050521 22 201 3.2 9.7 0.00 0.03 0.00 33 1009.2
20260510045521 22 200 3.2 8.0 0.00 0.03 0.03 33 1009.2
20260510044521 22 207 4.8 12.9 0.00 0.03 0.03 31 1009.1
20260510043518 22 210 6.4 14.5 0.00 0.03 0.03 30 1009.2
20260510042518 22 204 6.4 12.9 0.00 0.03 0.03 30 1009.2
20260510041520 22 208 6.4 17.7 0.00 0.03 0.03 28 1009.2
20260510040519 23 209 6.4 19.3 0.00 0.03 0.03 27 1009.1
20260510035604 23 207 4.8 9.7 0.00 0.03 0.03 26 1009.1
20260510034519 22 221 6.4 9.7 0.00 0.03 0.03 25 1009.0
20260510033519 22 202 1.6 9.7 0.00 0.03 0.03 25 1008.9
20260510032519 22 207 1.6 6.4 0.00 0.03 0.03 25 1008.8
20260510031540 23 209 4.8 9.7 0.00 0.03 0.03 24 1008.7
20260510030520 23 198 4.8 9.7 0.00 0.03 0.03 22 1008.7
20260510025520 24 202 4.8 8.0 0.00 0.03 0.03 21 1008.6
20260510024521 25 202 4.8 9.7 0.00 0.03 0.03 20 1008.5
20260510023521 25 194 4.8 6.4 0.00 0.03 0.03 19 1008.4
20260510022521 26 189 0.0 3.2 0.00 0.03 0.03 18 1008.3
20260510021521 26 226 0.0 4.8 0.00 0.03 0.03 17 1008.2
20260510020528 27 230 1.6 6.4 0.00 0.03 0.03 16 1008.0
20260510015522 27 231 3.2 8.0 0.00 0.03 0.03 16 1007.8
20260510014521 28 232 1.6 3.2 0.00 0.03 0.03 16 1007.8
20260510013522 30 229 8.0 11.3 0.00 0.03 0.03 15 1007.7
20260510012522 31 232 9.7 16.1 0.00 0.03 0.03 14 1007.6
20260510011519 31 233 8.0 11.3 0.00 0.03 0.03 13 1007.5
20260510010519 32 240 9.7 14.5 0.00 0.03 0.03 12 1007.6
20260510005519 33 247 11.3 17.7 0.00 0.03 0.03 12 1007.5
20260510004519 33 244 11.3 17.7 0.00 0.03 0.03 12 1007.5
20260510003519 33 238 11.3 17.7 0.00 0.03 0.03 11 1007.5
20260510002545 33 248 11.3 17.7 0.00 0.03 0.03 11 1007.5
20260510001519 33 241 9.7 19.3 0.00 0.03 0.03 11 1007.6
20260510000520 34 235 11.3 20.9 0.00 0.03 0.03 11 1007.6
20260509235519 34 243 12.9 20.9 0.00 0.03 0.03 11 1007.8
20260509234540 34 242 8.0 14.5 0.00 0.03 0.03 11 1007.8
20260509233520 34 237 11.3 16.1 0.00 0.03 0.03 11 1007.8
20260509232520 34 271 9.7 16.1 0.00 0.03 0.03 11 1007.9
20260509231521 34 264 9.7 16.1 0.00 0.03 0.03 11 1007.9
20260509230701 34 257 9.7 17.7 0.00 0.03 0.03 11 1008.1
20260509225521 34 248 8.0 14.5 0.00 0.03 0.03 11 1008.2
20260509224541 34 266 11.3 16.1 0.00 0.03 0.03 11 1008.2
20260509223521 35 283 11.3 20.9 0.00 0.03 0.03 11 1008.2
20260509222542 35 269 11.3 22.5 0.00 0.03 0.03 11 1008.4
20260509221521 35 305 16.1 22.5 0.00 0.03 0.03 11 1008.4
20260509220521 35 269 9.7 19.3 0.00 0.03 0.03 11 1008.6
20260509215522 34 274 12.9 22.5 0.00 0.03 0.03 11 1008.6
20260509214558 34 251 12.9 24.1 0.00 0.03 0.03 11 1008.8
20260509213520 34 274 16.1 30.6 0.03 0.03 0.03 11 1008.9
20260509212520 34 277 11.3 22.5 0.00 0.00 0.00 12 1009.0
20260509211519 34 273 17.7 29.0 0.00 0.00 0.00 12 1009.2
20260509210519 34 279 16.1 29.0 0.00 0.00 0.00 12 1009.3
20260509205520 34 252 12.9 20.9 0.00 0.00 0.00 12 1009.6
20260509204524 34 267 16.1 32.2 0.00 0.00 0.00 12 1009.7
20260509203540 34 277 16.1 22.5 0.00 0.00 0.00 12 1009.8
20260509202520 34 265 14.5 22.5 0.00 0.00 0.00 12 1010.0
20260509201543 34 243 9.7 20.9 0.00 0.00 0.00 13 1010.2
20260509200601 33 232 9.7 17.7 0.00 0.00 0.00 13 1010.2
20260509195520 34 226 11.3 22.5 0.00 0.00 0.00 13 1010.3
20260509194528 33 234 11.3 22.5 0.00 0.00 0.00 13 1010.5
20260509193521 33 222 9.7 22.5 0.00 0.00 0.00 13 1010.6
20260509192520 33 230 8.0 14.5 0.00 0.00 0.00 14 1010.8
20260509191522 33 235 9.7 19.3 0.00 0.00 0.00 15 1010.9
20260509190522 32 241 14.5 29.0 0.00 0.00 0.00 15 1011.0
20260509185524 32 226 8.0 17.7 0.00 0.00 0.00 15 1011.1
20260509184522 32 240 14.5 19.3 0.00 0.00 0.00 16 1011.2
20260509183521 32 252 12.9 20.9 0.00 0.00 0.00 16 1011.3
20260509182519 32 228 9.7 20.9 0.00 0.00 0.00 18 1011.4
20260509181539 32 230 11.3 22.5 0.00 0.00 0.00 19 1011.6
20260509180518 32 256 14.5 20.9 0.00 0.00 0.00 17 1011.7
20260509175540 31 230 11.3 22.5 0.00 0.00 0.00 19 1011.9
20260509174539 31 246 14.5 25.7 0.00 0.00 0.00 18 1012.0
20260509173539 31 215 9.7 20.9 0.00 0.00 0.00 19 1012.1
20260509172520 31 219 8.0 20.9 0.00 0.00 0.00 19 1012.2
20260509171540 31 226 9.7 22.5 0.00 0.00 0.00 21 1012.4
20260509170524 30 195 9.7 19.3 0.00 0.00 0.00 21 1012.4
20260509165520 30 229 11.3 17.7 0.00 0.00 0.00 20 1012.5
20260509164521 30 218 8.0 17.7 0.00 0.00 0.00 21 1012.5
20260509163520 29 229 9.7 25.7 0.00 0.00 0.00 23 1012.5
20260509162521 29 226 9.7 22.5 0.00 0.00 0.00 25 1012.6
20260509161526 28 224 9.7 19.3 0.00 0.00 0.00 26 1012.7
20260509160522 28 217 9.7 19.3 0.00 0.00 0.00 26 1012.7
20260509155521 28 221 8.0 19.3 0.00 0.00 0.00 25 1012.7
20260509154522 27 224 8.0 20.9 0.00 0.00 0.00 28 1012.8